Wetbulb
35.00 36.27 36.21 34.87 34.91 35.98 34.58 36.07 31.96 34.86 35.98 40.76 44.05 45.87 47.11 48.91 49.66 49.46 50.19 50.88 51.96 52.64 54.66 56.04 56.01 56.63 57.21 57.96 58.85 59.94 59.84 62.22 63.84 66.25 67.12 66.48 66.73 67.36 67.95 68.99 69.12 69.27 69.39 69.76
29.43 34.24 35.17 33.51 35.92 36.60 36.59 36.91 36.81 37.28 36.98 43.76 45.56 46.63 46.58 47.66 48.28 48.52 49.68 50.78 51.62 52.47 53.31 54.03 55.44 55.99 56.21 56.63 58.30 59.41 59.75 59.89 63.77 64.83 66.46 65.89 65.94 66.88 67.93 68.31 68.91 68.95 68.79 69.17
24.08 31.36 31.86 27.36 33.67 35.52 36.40 38.22 37.89 33.74 39.51 43.23 43.09 44.41 45.69 46.95 47.52 47.57 49.01 49.47 50.01 51.14 51.55 52.29 53.58 55.85 55.68 56.86 57.92 57.66 57.68 58.60 61.07 63.19 64.81 65.32 65.62 65.72 65.73 66.48 67.54 68.19 68.51 68.94
25.01 27.86 18.43 32.89 39.41 39.01 36.98 38.24 40.03 39.96 40.60 41.91 42.45 44.10 45.89 48.03 47.54 46.98 48.37 49.71 50.50 50.80 51.98 53.02 53.47 53.61 55.71 56.37 55.03 54.93 55.84 57.19 58.59 61.29 63.31 65.07 64.28 64.17 63.71 63.81 63.46 63.43 63.54 63.42
23.97 24.11 28.96 32.32 35.84 35.79 34.98 34.39 40.38 38.96 41.05 42.44 43.81 44.66 44.36 48.10 48.50 47.85 48.67 49.96 50.64 52.75 53.40 52.77 52.56 53.60 54.34 55.82 54.51 54.10 53.85 55.48 56.90 60.07 62.28 63.13 63.54 62.55 63.32 62.00 61.13 60.65 60.05 60.12
28.85 22.74 19.98 32.37 38.33 41.93 41.02 30.12 39.96 40.07 38.81 40.79 42.77 37.76 41.89 47.16 48.29 48.21 49.07 49.38 49.66 51.61 52.35 52.05 52.23 53.01 53.19 52.59 52.84 52.69 54.00 53.93 56.67 57.40 59.01 62.06 62.28 62.66 61.22 61.12 59.92 57.73 58.05 58.67
29.19 26.59 29.62 37.91 40.55 42.04 28.58 30.25 40.20 40.60 40.50 40.65 38.56 41.07 44.34 46.34 46.20 47.46 47.68 47.93 48.96 49.28 49.74 50.72 52.14 52.17 51.53 52.01 51.70 53.02 54.49 54.67 55.19 56.83 57.36 58.11 61.32 61.73 61.28 59.97 57.39 55.28 53.67 52.76
29.76 26.24 24.63 40.19 38.40 32.05 36.67 39.94 40.93 42.25 42.57 41.25 42.09 42.79 43.63 44.62 44.91 45.50 45.37 46.14 47.16 47.09 47.83 49.56 50.59 50.50 50.37 50.97 52.67 53.62 53.81 53.57 53.29 53.96 55.58 56.83 58.18 61.12 59.56 55.24 52.24 48.31 44.68 40.17
30.34 31.08 39.41 40.62 39.27 40.77 41.51 39.73 41.60 41.46 42.60 42.39 41.69 41.99 43.05 42.88 43.80 44.62 45.16 44.87 45.81 45.63 46.42 47.90 49.23 49.80 48.80 50.30 52.47 52.93 52.32 52.24 52.10 52.34 53.55 54.58 57.21 58.28 54.57 53.39 51.42 46.08 42.82 41.42
32.10 34.92 36.59 39.16 40.15 40.69 41.83 41.17 42.04 42.84 41.97 41.93 40.63 41.52 41.59 42.42 42.91 43.38 44.24 44.10 44.42 44.05 44.26 45.45 47.49 48.82 49.51 50.36 51.32 51.78 51.04 51.78 51.23 50.93 52.14 54.02 56.66 55.70 54.11 51.92 50.66 46.51 43.80 42.35
31.14 35.03 37.25 38.23 39.65 41.24 40.87 41.16 40.83 42.01 41.64 41.07 40.30 39.77 40.35 40.67 41.49 42.21 43.16 43.07 43.03 42.61 42.68 43.57 45.58 46.58 48.61 49.55 50.24 49.91 50.56 50.95 50.40 50.28 51.31 52.39 56.02 51.85 53.15 53.64 51.46 47.80 45.97 44.53
28.93 36.42 36.47 37.54 40.59 41.55 39.85 39.77 40.92 40.42 39.50 40.21 40.27 39.71 39.90 39.98 41.17 41.50 40.99 41.17 40.49 40.86 41.53 42.58 43.59 44.42 45.74 47.87 49.61 49.12 48.89 49.54 49.41 50.83 51.95 53.75 52.38 44.96 36.66 36.23 39.62 40.71 41.44 44.69
35.76 39.12 39.41 40.70 41.09 41.16 40.19 40.34 40.43 39.66 39.41 37.95 39.65 39.99 39.91 39.38 39.66 38.81 38.83 38.49 37.72 38.67 39.74 40.75 41.66 43.07 45.19 46.47 47.55 47.94 48.06 48.97 49.52 46.99 50.82 49.12 45.35 43.23 44.54 37.94 35.41 37.99 38.90 39.08
40.11 39.53 37.34 39.04 37.93 40.59 40.43 40.44 40.33 39.64 39.38 38.95 39.03 39.11 38.59 37.60 37.40 36.00 34.91 35.71 36.33 36.27 36.87 38.15 38.91 40.20 43.24 44.69 46.00 47.20 47.96 41.61 48.41 50.22 50.38 47.04 46.68 44.00 43.13 39.21 37.43 34.52 35.06 38.87
39.05 40.23 39.68 40.33 40.12 39.28 39.71 39.15 37.48 36.46 36.70 36.35 37.06 36.60 36.61 34.71 34.19 34.64 35.78 36.19 36.23 35.64 35.74 36.50 37.00 38.43 41.69 43.48 44.23 45.58 47.17 47.07 47.40 48.80 47.60 43.46 43.32 39.57 37.94 36.34 34.71 32.83 33.70 33.52
39.44 40.14 39.73 38.05 37.67 37.88 37.60 35.95 33.30 33.48 34.48 33.99 34.57 34.86 35.13 35.28 35.00 34.96 34.77 35.11 33.23 31.76 33.64 34.68 35.42 38.27 40.87 42.20 42.94 44.00 46.87 41.23 43.71 45.57 41.75 40.50 38.49 36.86 35.42 34.67 33.68 33.67 33.64 33.01
37.18 35.94 36.71 36.30 36.30 35.15 33.30 33.12 33.25 33.19 33.85 33.71 33.08 34.19 34.38 34.33 34.01 33.16 33.73 34.34 33.85 32.69 32.92 32.65 36.03 38.61 39.87 42.06 42.52 43.75 46.50 42.53 38.54 40.72 39.49 38.04 36.60 35.51 34.95 34.38 33.64 33.46 33.07 33.70
40.06 39.49 38.96 37.86 34.98 32.80 31.94 32.94 32.49 32.04 32.33 33.25 33.41 32.84 32.39 32.14 31.85 31.90 32.90 33.22 32.38 32.18 32.65 32.59 32.18 37.06 38.96 40.67 42.57 42.62 40.84 39.10 38.14 36.55 35.81 34.60 34.44 34.72 34.20 33.41 32.45 31.49 31.58 32.22
39.79 38.71 38.06 36.40 34.56 33.50 32.82 32.50 31.89 32.28 32.17 32.28 31.22 31.28 31.75 32.27 32.07 32.24 32.83 32.33 31.04 30.14 31.07 32.68 31.55 32.27 33.67 33.79 37.72 37.93 37.34 35.96 35.05 34.32 33.74 33.16 32.89 32.71 32.30 31.99 31.69 31.90 32.17 31.88
39.05 38.03 37.02 36.24 35.58 33.36 32.59 32.41 33.09 32.20 31.68 31.52 30.71 30.36 30.41 31.82 31.92 32.08 32.24 31.37 31.45 31.12 32.31 32.60 33.11 32.30 32.10 31.98 33.50 34.72 34.06 33.49 32.93 32.60 32.54 32.27 32.06 31.72 31.87 31.89 31.94 32.01 31.91 31.95
38.39 37.46 35.93 34.02 31.85 32.76 32.63 33.35 32.43 31.91 31.36 31.14 29.91 29.09 30.30 31.82 31.68 32.15 31.05 29.86 31.82 32.35 32.54 32.36 32.36 32.36 32.62 32.48 32.72 32.78 33.01 32.66 32.48 32.09 31.86 31.62 31.72 31.69 31.88 32.28 32.12 32.09 31.74 31.70
37.01 36.54 33.64 31.75 31.77 32.56 34.06 34.09 33.80 33.68 31.94 32.36 30.72 30.37 30.76 31.06 30.69 31.25 31.92 30.05 32.15 31.97 32.52 32.06 32.14 32.22 32.35 32.33 32.53 32.42 32.38 32.41 32.28 32.49 32.18 32.19 32.16 32.00 31.86 31.88 31.62 31.79 31.77 31.92
37.26 37.13 35.14 32.31 31.54 33.24 35.15 35.73 33.67 33.94 31.74 32.00 30.89 30.20 30.19 31.20 31.79 29.41 28.42 31.73 32.38 31.96 32.09 31.95 31.91 31.96 32.21 32.56 32.24 32.06 31.85 31.65 31.67 31.47 31.50 31.52 31.56 31.59 31.59 31.41 31.64 31.57 31.69 31.76
38.26 36.95 36.01 36.55 35.23 34.34 33.61 34.53 35.38 34.90 32.85 32.13 31.13 30.64 30.32 29.78 31.28 32.11 32.63 32.32 31.86 32.10 32.03 31.87 31.81 31.57 31.64 31.81 31.67 31.63 31.63 31.66 31.51 31.69 31.65 31.70 31.66 31.53 31.36 31.36 31.33 31.77 31.97 31.97
37.92 37.40 37.17 35.83 34.90 34.89 34.97 35.03 34.92 34.65 33.90 32.58 30.77 30.21 30.21 31.06 30.51 30.92 31.39 31.53 31.20 31.78 32.00 32.36 32.32 32.31 32.38 32.14 31.68 31.26 31.12 31.18 31.28 31.38 31.20 31.23 31.30 31.15 31.37 31.39 31.29 31.31 31.29 31.08
36.93 36.18 37.04 36.67 35.83 35.43 34.56 34.38 33.00 31.18 30.74 30.47 30.39 30.21 29.90 29.84 30.21 30.12 30.06 30.21 30.24 30.37 30.79 31.15 31.68 32.67 32.72 32.65 32.10 31.55 31.25 31.30 30.96 30.72 30.67 30.54 30.36 30.20 30.47 30.50 30.50 30.64 30.62 30.59
36.66 33.96 36.47 34.87 34.13 33.59 32.49 30.98 31.32 28.49 27.23 28.54 27.82 28.32 28.16 28.19 28.40 28.05 27.98 28.39 28.80 29.05 29.33 30.06 30.14 30.31 31.18 31.91 31.74 31.94 31.73 31.12 30.73 30.34 30.59 30.49 30.28 30.44 30.18 30.49 30.48 30.49 30.41 30.19
MSLP
1013.38 1012.19 1011.40 1010.81 1010.04 1008.77 1008.10 1007.32 1006.61 1005.92 1004.94 1003.25 1001.67 1001.05 1000.91 1000.29 1000.33 1000.29 1000.12 999.80 999.64 999.50 999.40 999.26 999.38 999.59 1000.03 1000.18 1000.01 1000.08 1000.03 999.68 999.56 999.46 999.40 999.36 999.25 999.08 999.04 999.11 999.18 999.46 999.75 1000.11
1013.50 1012.97 1011.52 1010.11 1009.45 1008.42 1007.41 1006.46 1005.53 1004.86 1004.08 1003.11 1001.88 1000.94 1000.93 1000.69 1000.27 999.95 999.81 999.53 999.31 999.29 999.21 999.32 999.40 999.61 999.84 999.88 999.90 1000.01 1000.01 999.96 999.49 999.29 999.09 999.06 998.95 998.75 998.60 998.56 998.56 998.88 999.15 999.45
1013.30 1013.46 1011.94 1009.75 1009.11 1008.01 1007.31 1006.60 1005.79 1004.64 1003.65 1003.00 1002.37 1001.49 1000.53 1000.52 1000.39 1000.08 999.71 999.31 999.20 999.11 999.33 999.69 1000.03 999.80 999.65 999.72 999.61 999.84 999.94 999.87 999.43 998.94 998.71 998.64 998.65 998.66 998.50 998.20 998.22 998.28 998.58 999.04
1014.38 1013.95 1011.82 1009.20 1008.12 1007.27 1006.63 1006.10 1005.50 1004.96 1004.88 1004.41 1003.37 1002.92 1002.26 1001.72 1001.96 1001.88 1000.98 999.77 1000.06 999.95 1000.32 1000.13 1000.18 1000.16 1000.03 999.73 999.75 999.92 1000.04 999.96 999.57 998.87 998.55 998.49 998.58 998.54 998.53 998.44 998.22 998.23 998.51 998.84
1014.25 1013.02 1010.94 1009.36 1008.20 1007.25 1006.99 1006.84 1007.08 1007.40 1006.53 1005.35 1004.49 1003.75 1002.87 1002.91 1003.18 1003.34 1002.63 1002.86 1002.21 1001.09 1000.95 1000.88 1000.71 1000.35 1000.02 999.76 999.63 999.77 999.72 999.54 999.22 998.92 998.50 998.30 998.33 998.44 998.47 998.60 998.62 998.48 998.88 999.10
1013.52 1012.53 1010.76 1008.62 1007.64 1007.42 1007.53 1007.55 1007.94 1008.09 1007.87 1006.92 1005.87 1004.57 1003.63 1003.77 1003.73 1003.67 1003.48 1003.29 1002.90 1002.36 1001.40 1001.18 1000.81 1000.51 1000.06 999.59 999.45 999.35 999.29 999.08 998.76 998.69 998.70 998.29 998.01 998.00 998.18 998.36 998.56 998.89 999.14 999.32
1012.41 1011.88 1010.38 1009.32 1009.00 1008.51 1008.38 1009.46 1008.57 1007.94 1007.63 1007.50 1007.15 1006.48 1005.68 1005.18 1004.62 1004.51 1004.36 1003.87 1003.28 1002.68 1002.02 1001.54 1000.86 1000.44 999.84 999.28 998.84 998.61 998.47 998.34 998.19 998.11 998.19 998.23 998.05 997.78 997.84 998.22 998.53 999.00 999.23 999.49
1011.68 1011.14 1009.87 1009.88 1010.20 1010.86 1010.39 1009.12 1008.80 1007.76 1007.18 1007.23 1007.27 1006.68 1006.30 1005.46 1005.14 1004.88 1004.66 1004.27 1004.00 1003.23 1002.34 1001.48 1000.86 1000.41 999.80 998.88 998.06 997.99 997.66 997.63 997.57 997.54 997.65 997.65 997.78 997.64 997.73 998.16 998.83 999.39 999.89 1000.16
1012.27 1010.72 1009.69 1009.24 1010.37 1010.47 1009.99 1010.40 1009.27 1008.77 1008.16 1007.69 1007.42 1006.96 1006.46 1005.77 1005.16 1004.84 1004.36 1004.14 1003.98 1003.54 1002.57 1001.77 1000.91 1000.10 999.52 998.69 997.76 997.11 996.91 996.84 996.95 997.10 997.46 997.31 997.33 997.49 998.17 998.47 998.87 999.43 1000.03 1000.52
1011.55 1010.43 1009.62 1009.18 1009.16 1009.12 1009.26 1009.02 1009.06 1008.79 1008.37 1007.97 1007.63 1007.46 1007.08 1006.42 1005.77 1005.40 1004.85 1004.17 1003.89 1003.62 1002.91 1001.79 1000.96 1000.15 999.14 998.09 997.69 996.67 996.24 996.11 996.08 996.42 996.80 997.08 997.47 997.73 998.05 998.34 998.76 999.07 999.73 1000.30
1011.37 1010.53 1009.63 1009.21 1008.89 1008.98 1008.75 1008.69 1008.35 1008.51 1008.66 1008.31 1008.35 1008.22 1007.94 1007.11 1006.39 1005.87 1005.45 1004.89 1004.34 1003.55 1003.02 1002.08 1001.10 1000.01 998.94 997.86 997.18 996.52 995.90 995.51 995.34 995.52 996.01 996.62 997.18 998.01 998.21 997.99 997.96 998.43 998.90 999.49
1010.85 1010.60 1010.12 1009.49 1009.35 1009.19 1008.44 1008.18 1008.65 1008.83 1008.96 1009.00 1008.87 1008.62 1008.15 1007.35 1006.61 1005.99 1005.28 1005.14 1004.55 1003.49 1002.64 1001.49 1000.65 999.50 998.65 997.82 996.95 996.07 995.49 994.96 994.84 994.90 995.29 995.89 997.20 998.59 999.14 998.79 997.73 997.79 997.95 998.30
1010.36 1010.03 1009.53 1008.89 1008.60 1009.05 1008.84 1009.03 1009.07 1009.27 1009.23 1009.33 1009.29 1008.81 1008.31 1007.63 1007.22 1006.63 1005.90 1004.88 1004.37 1002.97 1001.87 1001.05 999.92 998.64 997.48 996.91 996.59 995.88 995.01 994.69 994.37 994.48 994.97 995.76 996.84 998.02 998.71 998.79 998.38 997.84 997.89 998.21
1010.11 1009.41 1008.87 1008.78 1008.90 1009.07 1009.18 1009.41 1009.46 1009.50 1009.69 1009.85 1009.62 1009.34 1009.02 1008.38 1007.57 1006.88 1005.80 1004.53 1003.37 1002.24 1000.89 999.90 998.76 997.29 996.32 996.07 995.73 995.03 994.28 994.05 993.63 993.84 994.50 995.46 996.49 997.32 998.05 998.53 998.69 998.58 998.32 997.96
1008.90 1008.79 1008.73 1009.04 1009.29 1009.46 1009.56 1009.78 1009.83 1010.01 1010.24 1010.43 1010.47 1010.16 1009.44 1008.52 1007.51 1006.39 1005.24 1004.03 1002.62 1001.15 999.59 998.13 996.71 995.31 995.22 995.32 994.79 994.19 993.58 993.32 993.08 992.95 993.82 994.74 995.76 996.97 997.71 998.20 998.65 998.80 998.94 998.94
1008.37 1008.36 1009.00 1009.50 1009.72 1009.89 1010.24 1010.71 1011.14 1011.12 1011.17 1011.06 1010.79 1010.23 1009.59 1008.67 1007.60 1006.36 1005.14 1003.73 1002.04 1000.13 998.22 996.19 994.80 993.78 993.86 993.84 993.58 993.19 992.66 992.42 992.57 992.81 993.92 994.98 995.84 996.85 997.79 998.42 998.78 998.90 999.18 999.46
1008.11 1008.78 1009.42 1010.13 1010.53 1011.05 1011.62 1011.88 1011.89 1011.81 1011.62 1011.32 1010.90 1010.34 1009.51 1008.46 1007.37 1006.14 1004.78 1003.38 1001.94 1000.19 998.34 996.10 993.70 992.98 992.84 992.81 992.65 992.31 992.10 992.44 992.40 993.03 994.02 995.02 995.81 996.90 997.88 998.44 998.77 999.13 999.51 999.77
1008.46 1008.86 1009.50 1010.31 1011.23 1011.83 1012.21 1012.30 1012.32 1012.21 1011.88 1011.51 1011.04 1010.41 1009.56 1008.53 1007.47 1006.17 1004.67 1003.19 1001.89 1000.18 998.45 996.44 994.45 992.98 992.66 992.50 992.26 991.94 992.56 992.80 992.99 993.57 994.58 995.35 996.35 997.40 998.17 998.58 998.96 999.37 999.95 1000.36
1008.33 1009.18 1010.05 1010.83 1011.62 1012.04 1012.27 1012.37 1012.43 1012.30 1012.10 1011.66 1011.11 1010.48 1009.70 1008.74 1007.70 1006.58 1005.23 1003.72 1002.26 1000.56 998.99 997.41 995.72 994.31 993.38 992.75 992.19 992.35 992.59 993.11 993.77 994.50 995.27 996.26 997.16 998.00 998.62 999.06 999.39 999.87 1000.34 1000.92
1008.72 1009.87 1010.63 1010.99 1011.59 1012.08 1012.23 1012.39 1012.29 1012.23 1012.10 1011.75 1011.21 1010.59 1009.64 1008.65 1007.77 1006.80 1005.71 1004.44 1003.37 1002.23 1000.68 999.14 997.63 996.50 995.63 994.72 993.75 993.30 993.70 994.28 994.94 995.66 996.51 997.35 998.03 998.52 999.02 999.59 999.87 1000.27 1000.84 1001.49
1009.01 1009.85 1010.72 1011.42 1011.91 1012.08 1012.04 1011.93 1011.88 1011.97 1011.94 1011.72 1011.28 1010.74 1009.99 1008.99 1008.14 1007.22 1006.36 1005.35 1004.18 1003.00 1001.69 1000.47 999.39 998.17 997.20 996.39 995.85 995.72 995.52 995.86 996.42 997.16 997.86 998.47 999.06 999.42 999.93 1000.43 1000.69 1000.85 1001.34 1002.04
1009.43 1009.98 1010.86 1011.62 1011.62 1011.54 1011.32 1011.27 1011.36 1011.52 1011.55 1011.41 1011.29 1010.85 1010.12 1009.17 1008.48 1007.69 1007.29 1006.73 1005.52 1004.30 1003.05 1001.99 1001.03 1000.10 999.33 998.70 998.27 997.99 997.76 998.01 998.41 998.86 999.32 999.79 1000.14 1000.54 1001.02 1001.40 1001.73 1002.07 1002.41 1003.22
1009.26 1009.67 1010.27 1010.92 1011.13 1010.92 1010.75 1010.58 1010.69 1010.94 1010.98 1011.09 1011.26 1011.10 1010.52 1009.83 1009.26 1008.43 1007.60 1007.26 1006.50 1005.58 1004.70 1003.88 1002.99 1001.84 1001.09 1000.70 1000.45 1000.21 1000.11 1000.21 1000.39 1000.63 1000.88 1001.13 1001.49 1001.90 1002.33 1002.77 1003.28 1003.58 1003.86 1004.57
1008.64 1009.23 1009.65 1009.93 1010.27 1010.18 1009.89 1010.07 1010.02 1010.22 1010.60 1010.74 1011.18 1011.32 1010.96 1010.37 1009.67 1009.37 1008.81 1008.10 1007.33 1006.56 1005.99 1005.46 1004.70 1003.87 1003.22 1002.85 1002.49 1002.33 1002.25 1002.23 1002.29 1002.42 1002.63 1002.87 1003.22 1003.70 1004.16 1004.72 1004.87 1005.07 1005.55 1005.81
1008.42 1008.72 1008.95 1009.19 1009.28 1009.21 1009.35 1009.66 1009.75 1009.93 1010.26 1010.53 1011.16 1011.41 1011.37 1011.01 1010.65 1010.22 1009.63 1008.93 1008.31 1007.58 1006.90 1006.36 1005.87 1005.31 1004.96 1004.73 1004.54 1004.46 1004.45 1004.36 1004.36 1004.47 1004.60 1004.75 1005.00 1005.34 1005.73 1005.99 1006.16 1006.31 1006.55 1006.91
1008.06 1008.30 1008.42 1008.58 1008.73 1008.90 1009.25 1009.69 1009.91 1010.40 1010.82 1010.91 1011.20 1011.60 1011.58 1011.37 1010.97 1010.69 1010.36 1009.90 1009.31 1008.77 1008.25 1007.76 1007.25 1006.72 1006.36 1006.08 1006.04 1006.03 1005.98 1005.79 1005.72 1005.85 1006.02 1006.15 1006.32 1006.47 1006.70 1006.87 1007.17 1007.45 1007.43 1007.36
1007.89 1008.05 1008.24 1008.44 1008.90 1009.29 1009.63 1010.18 1010.40 1010.95 1011.43 1011.46 1011.53 1011.81 1011.86 1011.74 1011.54 1011.28 1011.04 1010.70 1010.32 1009.92 1009.46 1009.06 1008.70 1008.29 1007.86 1007.50 1007.28 1007.15 1007.12 1007.12 1007.08 1007.14 1007.22 1007.30 1007.38 1007.50 1007.72 1007.87 1007.91 1007.85 1007.85 1007.90
Wind_Speed
19 21 20 17 16 21 18 18 14 12 16 21 21 17 15 17 15 15 15 15 13 11 6 5 6 5 5 7 6 6 9 6 5 6 6 7 7 9 11 9 12 13 14 14
21 21 22 20 19 20 20 22 21 20 18 18 19 21 16 16 16 16 16 14 13 15 11 10 7 6 9 8 5 5 6 10 7 6 5 6 7 7 7 9 11 12 15 15
20 18 22 18 13 17 19 21 21 18 20 19 19 19 19 17 16 17 15 13 16 6 9 9 13 9 6 7 4 5 6 10 10 7 6 6 6 5 7 8 8 13 13 14
15 16 14 10 15 18 19 21 20 19 19 23 19 17 17 18 20 23 28 14 12 13 13 10 12 14 11 4 5 5 7 9 11 8 6 6 6 6 5 3 3 2 3 4
7 11 19 23 21 22 17 15 16 18 16 15 16 18 16 13 18 18 17 17 17 8 7 10 13 15 14 8 6 7 8 8 8 8 7 6 7 7 4 4 3 4 3 6
8 6 9 8 14 16 12 14 13 10 17 21 18 11 10 19 18 18 19 17 16 17 13 11 12 14 15 10 8 9 7 9 7 6 10 7 7 7 4 4 4 3 5 6
11 10 9 10 17 14 10 9 20 15 11 7 14 13 18 17 18 17 17 20 21 20 16 16 15 15 17 15 12 10 7 8 8 7 7 8 7 6 5 5 5 5 5 5
9 8 8 10 14 7 13 15 19 20 12 12 14 18 19 19 17 18 18 18 18 17 18 19 18 17 19 19 15 11 8 8 7 6 6 5 7 6 4 6 5 5 5 2
9 9 21 16 8 14 15 12 13 14 17 17 17 18 19 20 20 18 19 18 16 17 20 19 19 19 20 20 17 13 11 9 6 5 7 6 6 4 3 5 6 5 5 5
18 18 20 19 18 19 14 13 13 14 17 16 17 17 20 19 20 18 19 18 17 20 20 21 20 21 21 21 19 17 14 11 7 6 5 5 4 3 5 6 6 6 7 6
21 21 21 20 16 17 17 18 16 16 18 17 17 19 19 19 20 18 18 19 19 19 19 22 22 23 23 22 20 19 15 12 8 6 7 5 3 2 6 8 9 8 9 9
15 18 20 21 20 24 22 16 13 15 16 16 15 17 20 18 19 19 21 20 21 23 22 22 22 24 24 23 21 20 17 12 6 5 5 4 4 3 4 9 8 10 10 11
15 18 18 18 16 13 16 14 14 13 15 15 16 16 20 21 21 24 23 23 23 25 24 24 24 24 23 22 20 22 17 16 5 4 5 5 3 4 7 3 8 6 11 9
21 19 17 17 12 13 13 14 14 13 12 13 16 18 19 19 21 23 24 26 27 27 27 26 27 27 24 22 21 22 20 16 8 6 6 5 5 4 4 4 3 1 1 7
15 12 11 11 11 11 9 9 13 14 14 15 15 15 17 20 21 22 23 24 25 26 27 28 27 28 23 20 20 21 17 12 7 6 6 6 5 3 2 2 2 2 3 6
15 11 8 7 9 11 13 13 12 12 12 13 13 14 16 17 19 20 20 22 22 22 27 24 24 24 19 19 20 16 16 12 6 7 6 5 5 5 4 3 4 4 4 7
5 6 6 6 7 8 9 8 9 11 11 11 15 15 17 18 18 19 19 20 20 20 18 19 16 15 14 14 15 11 11 4 7 7 6 5 6 5 4 5 5 5 5 7
5 3 3 3 4 4 7 8 9 11 10 11 12 13 14 15 17 19 20 19 18 18 19 19 18 9 9 11 13 3 4 6 6 7 7 7 6 5 5 6 7 8 7 9
2 4 2 1 1 2 6 8 9 10 10 10 12 12 12 12 15 17 19 17 20 19 20 20 21 18 13 12 4 5 7 9 8 8 8 10 8 7 7 8 9 10 10 9
3 2 2 1 1 3 5 7 7 9 10 10 13 12 13 13 14 16 17 17 18 15 17 19 17 15 13 12 12 9 10 10 10 9 8 8 8 9 9 11 11 11 11 10
4 4 0 2 2 5 5 4 4 5 9 11 12 13 12 11 12 13 14 13 20 21 17 19 17 13 13 13 12 10 11 11 11 9 9 9 10 10 10 9 10 10 11 10
5 4 5 4 5 7 4 4 3 0 4 4 11 12 12 12 13 11 10 12 12 23 16 14 13 20 15 19 13 13 13 12 10 9 8 8 8 9 9 9 9 9 9 9
7 5 5 6 6 7 6 6 4 3 1 3 7 10 11 9 8 10 11 13 10 16 13 13 20 23 22 14 13 14 15 14 13 12 12 12 11 10 10 10 9 9 9 8
6 7 7 7 5 7 6 4 6 4 3 4 6 7 9 8 7 8 8 11 15 13 11 13 16 20 19 13 13 13 13 13 13 12 12 14 11 10 9 8 7 7 6 6
9 9 9 9 8 5 3 4 4 4 4 5 7 6 8 7 6 8 9 9 14 12 11 15 16 16 11 11 11 11 11 10 10 9 9 9 9 8 7 6 6 6 6 5
8 7 6 8 4 2 1 2 2 5 4 4 5 5 5 6 7 7 8 11 10 12 10 10 10 9 9 10 10 10 9 9 9 9 8 7 7 6 6 6 5 4 4 5
6 4 5 4 4 2 2 3 1 3 3 3 4 5 5 6 6 7 9 9 9 9 9 9 10 12 10 9 9 8 7 8 10 8 7 6 5 5 4 3 3 3 4 4
Wind_Direction
285 296 301 295 269 282 292 294 292 277 257 275 284 296 298 303 312 308 297 301 298 298 300 294 294 308 312 318 309 325 310 299 278 277 265 263 250 229 237 234 225 224 222 219
293 293 289 291 291 290 288 292 287 285 280 295 290 293 294 297 288 284 284 282 283 280 285 287 270 251 250 250 262 266 279 292 271 273 259 267 266 259 244 236 223 225 224 218
279 295 298 283 282 274 263 272 280 285 295 290 284 288 286 284 295 295 290 300 297 329 336 332 347 324 294 262 296 334 310 291 285 259 257 248 262 294 283 242 228 225 221 221
285 294 275 281 274 290 288 298 307 315 342 339 340 337 339 342 7 5 355 355 10 15 347 348 328 318 314 316 318 306 296 287 285 285 262 242 261 259 256 245 207 195 169 137
247 259 277 285 283 280 310 305 358 13 331 305 322 314 300 12 2 347 354 5 327 329 330 329 319 310 296 292 268 266 266 272 290 301 263 239 227 241 225 211 208 185 179 168
240 259 275 307 306 352 316 272 17 3 344 327 336 317 325 347 342 339 331 335 328 332 315 294 292 292 291 282 269 273 274 277 260 274 297 268 246 218 202 186 197 162 185 202
256 254 253 346 356 333 281 336 320 323 311 347 323 330 322 328 324 327 332 330 326 320 316 313 313 306 291 285 282 272 262 259 257 238 251 276 273 227 186 201 168 174 170 151
291 278 255 24 359 354 315 301 315 312 329 339 327 323 312 315 323 323 318 321 318 312 308 305 305 302 297 286 269 274 262 264 264 266 255 232 252 245 194 145 153 156 145 89
270 296 314 320 174 242 266 309 312 330 325 328 323 322 324 320 317 316 316 319 320 315 311 308 303 297 294 291 287 266 255 249 247 281 288 280 241 218 150 166 175 173 171 187
299 294 298 312 319 307 334 313 304 312 310 318 318 325 319 319 320 323 319 317 322 315 306 301 298 295 288 288 291 283 266 249 222 220 243 283 280 163 187 190 199 185 187 191
288 295 298 300 307 319 315 308 318 319 317 324 331 321 317 310 311 312 313 314 308 302 299 293 292 289 288 286 287 285 281 273 217 205 202 221 185 274 213 210 200 191 201 188
283 298 300 303 310 305 308 332 335 322 328 326 322 308 310 311 310 312 313 310 299 290 284 279 274 274 276 279 285 279 282 269 239 188 180 153 159 238 10 335 242 199 186 191
296 309 298 291 288 355 328 325 331 326 327 329 313 315 321 321 315 310 304 303 298 291 287 284 280 277 273 271 270 273 271 271 235 187 163 152 139 193 257 322 22 196 167 162
278 277 285 311 332 331 334 323 322 322 320 326 325 329 320 313 311 308 305 303 299 293 286 280 272 268 265 265 272 268 264 270 228 174 162 154 178 210 211 206 216 268 31 148
292 299 304 332 329 327 330 334 333 335 341 326 328 316 320 316 315 312 311 308 302 294 285 276 267 260 261 263 258 264 262 260 233 165 150 142 137 149 168 156 152 123 98 57
291 300 328 311 326 328 352 353 340 325 323 318 310 313 315 314 316 316 314 313 314 310 303 282 266 261 251 248 253 250 261 249 198 135 125 126 129 138 144 152 150 148 141 134
329 315 317 324 328 360 340 328 316 319 316 314 315 314 314 319 323 327 324 319 320 315 313 325 290 257 254 258 253 250 257 158 125 113 118 126 125 136 145 150 142 131 132 147
287 308 49 9 45 333 324 321 328 328 326 321 317 316 320 328 329 330 332 326 331 333 342 342 342 292 279 267 261 227 112 131 101 103 108 102 104 114 124 118 115 112 104 93
299 327 44 73 82 345 324 332 333 332 335 333 331 325 317 325 332 333 334 337 349 346 350 350 356 10 15 359 50 108 115 102 95 94 99 104 102 109 113 115 113 111 108 102
198 164 241 213 97 333 328 333 330 343 339 343 342 337 334 339 339 339 345 350 355 345 347 1 8 13 10 12 26 59 75 85 93 90 94 102 108 111 109 112 114 109 105 102
222 215 109 52 309 287 293 270 308 351 344 353 353 348 337 334 344 346 355 353 350 352 1 6 18 20 21 20 31 40 62 73 77 85 92 98 104 102 105 108 107 107 105 102
215 202 165 236 256 271 247 252 310 237 327 346 357 352 343 350 357 359 3 357 349 359 5 10 14 24 28 34 35 41 48 54 60 65 73 83 90 92 91 90 90 91 89 93
217 214 184 197 230 263 281 278 183 181 290 32 18 357 347 346 1 359 0 354 360 6 14 16 15 23 29 32 35 40 45 50 54 58 60 61 62 65 67 69 72 77 89 95
204 201 221 230 244 254 269 302 306 151 147 40 53 14 354 350 356 5 356 1 3 12 23 20 24 29 35 31 33 35 39 42 44 47 53 55 56 57 61 63 72 76 77 78
226 227 222 220 239 250 253 275 293 66 3 50 52 20 8 3 2 355 359 4 10 13 17 16 24 33 35 37 40 43 41 43 47 52 53 57 59 61 62 62 59 65 72 75
242 241 235 228 247 297 335 307 315 71 354 24 66 25 18 8 5 16 6 8 15 15 19 18 18 20 26 34 42 41 37 39 46 47 51 54 56 55 58 62 62 68 72 69
251 245 241 195 188 207 35 46 63 82 56 7 54 34 29 22 11 19 18 13 15 16 18 20 21 22 22 27 30 32 42 48 45 44 43 50 54 60 64 72 75 76 82 81